COSMOS 2251 DEB, 37305

Orbit data source: Space-Track

COSMOS 2251 DEB, 37305 is space debris in LEO originally from a launch on Wed, 16 Jun 1993 UTC launched from the Plesetsk Missile And Space Complex (PKMTR). The debris from Iridium 33, an American commercial communications satellite, has been tracked extensively since its accidental collision with the defunct Russian satellite Cosmos 2251 in 2009. This event, occurring at high speed in low Earth orbit (LEO), generated thousands of pieces of space debris, significantly increasing the risk of further collisions. The Iridium 33 debris cloud has impacted space traffic management and orbital debris mitigation strategies, making it a subject of ongoing study in space situational awareness.

Loading next visibility...
Identifier
37305, 1993-036BJV
Orbit
LEO
Country
Flag of CISCIS
Related business
Manufacturer
Unknown
Mission
Spacecraft
Bus & Motor
Unknown
Mass
Unknown
Launch date (UTC)
1993-06-16 (33 years ago)
Launch vehicle
Unknown
Launch site
Plesetsk Missile And Space Complex (PKMTR)
Object type
Payload
Rocket body
Debris
Shape & HBR
Unknown shape, 0.1 m
Radar Cross Section
Small (<0.1 m²)

Expand to show TLE details & history
Last TLE update: 2 days ago

TLE from 2 days ago
0 COSMOS 2251 DEB
1 37305U 93036BJV 26032.12876549  .00002174  00000-0  74239-3 0  9996
2 37305  73.8658 197.0258 0047355 147.4698 212.9389 14.36347252675900
Epoch: 2026-02-01T03:05Z
TLE epoch observation values (Epoch: 2026-02-01T03:05:25.338Z)
Latitude
0.00006°
Longitude
19.3274°
Altitude
801.658 km
Speed
7.438 km/s
True Right ascension
13h 08m 06s
True Declination
0° 00' 00"
Sunlit
Object was in daylight at epoch
Visualization orbit readout
Latitude
Unknown
Longitude
Unknown
Altitude
Unknown
Speed
Unknown
Apparent Right ascension
Unknown
Apparent Declination
Unknown
Sunlit
N/A
Visualization observer readout
Local Sidereal Time
05:52:46
Azimuth
Unknown
Elevation
Unknown
Doppler factor
Unknown
Orbital elements
Apogee altitude
802.072 km
Perigee altitude
734.389 km
Semi-major axis
7,146.368 km
Eccentricity
0.00474
Inclination
73.8658°
RAAN
197.0258°
Arg. of periapsis
147.4698°
True anomaly
212.6453°
Mean anomaly
212.9389°
Eccentric anomaly
212.79195°
Mean motion
3.59265 °/min
Orbital period
100.2 mins
BSTAR
0.00074239
Loading maneuver chart data...
Computing Atmospheric mass density...

Documentation

Showing up to 5 results
|